Starlink 2564

operational
NORAD ID: 48284 Int'l Des: 2021-036 Owner: SPXS Country: US Constellation: starlink
LEOCIRCULARSTARLINK_TYPE

Über Starlink 2564

Beschreibung wird geladen...

Live-Position

3D-Globus wird geladen...

Nächste Überflüge

Höhenverlauf

Altitude vs Time

uPlot chart will show altitude changes over time

Zweizeiliger Elementsatz

1 48284U 21036J 25306.20877250 -.00003914 00000-0 -24410-3 0 9998
2 48284 53.0551 293.9024 0001740 86.9890 273.1298 15.06381819249096
Epoch: 2. Nov. 2025 • Age: 20 hours

Aktueller Status

Höhe 549.9 km
Geschwindigkeit 7.59 km/s
Subsatellitenpunkt 39.96°N, 18.69°E
Startdatum 29. Apr. 2021
Alter 4.5 years
Typ internet

Technische Details

Klassifizierung Payload
Masse 260.00 kg
Trockenmasse 248.00 kg
Gesamtmasse 260.00 kg
Länge 0.20 m
Durchmesser 2.80 m
Spannweite 9.00 m
Form Box + pan
Hersteller SPXS
Bus-Typ Starlink
Phasenstatus In Orbit
Besitzer/Staat SPXS/US

Große Konstellationen

Loading constellations...